CDT,Max TemperatureF,Mean TemperatureF,Min TemperatureF,Max Dew PointF,MeanDew PointF,Min DewpointF,Max Humidity, Mean Humidity, Min Humidity, Max Sea Level PressureIn, Mean Sea Level PressureIn, Min Sea Level PressureIn, Max VisibilityMiles, Mean VisibilityMiles, Min VisibilityMiles, Max Wind SpeedMPH, Mean Wind SpeedMPH, Max Gust SpeedMPH,PrecipitationIn, CloudCover, Events, WindDirDegrees
2012-10-1,69,60,50,52,49,43,100,72,40,30.13,30.07,29.99,10,10,5,26,10,34,0.00,2,Thunderstorm,346
2012-10-2,73,58,42,45,42,34,93,61,29,30.14,30.06,29.95,10,10,7,15,6,,0.00,0,,257
2012-10-3,78,64,50,52,47,43,82,57,34,29.96,29.93,29.88,10,10,10,22,15,30,0.00,0,,178
2012-10-4,62,55,48,52,38,32,82,55,39,30.30,30.19,29.95,10,10,10,33,18,43,0.00,6,,45
2012-10-5,59,50,42,39,35,30,76,57,42,30.26,30.20,30.14,10,10,10,21,10,24,0.00,5,,85
2012-10-6,46,42,37,32,29,25,81,63,49,30.35,30.28,30.24,10,10,10,21,13,25,0.00,8,,77
2012-10-7,44,38,32,32,31,30,93,79,61,30.34,30.26,30.18,10,10,10,13,5,,0.00,4,,169
2012-10-8,62,47,32,36,33,28,93,61,32,30.19,30.06,29.93,10,10,10,22,14,31,0.00,0,,209
2012-10-9,77,60,42,43,35,21,87,51,12,30.17,29.96,29.86,10,10,10,20,13,26,0.00,0,,15
2012-10-10,59,47,35,43,35,28,93,63,31,30.29,30.21,30.12,10,10,10,17,10,22,0.00,3,,117
2012-10-11,82,63,44,59,51,43,93,69,37,30.12,30.08,30.02,10,10,5,23,13,29,0.00,1,,200
2012-10-12,68,58,48,61,49,34,94,72,54,30.28,30.14,29.99,10,10,7,30,12,37,0.00,5,Rain-Thunderstorm,141
2012-10-13,77,65,53,61,44,27,94,55,18,29.97,29.89,29.81,10,10,7,32,19,40,0.00,1,Thunderstorm,243
2012-10-14,73,60,46,41,37,34,81,46,23,30.26,30.16,29.95,10,10,10,23,14,29,0.00,0,,326
2012-10-15,80,64,48,37,35,30,66,38,16,30.21,30.05,29.91,10,10,10,26,14,34,0.00,0,,214
2012-10-16,78,64,50,45,38,34,82,45,20,29.90,29.74,29.57,10,10,7,21,12,24,0.00,0,,243
2012-10-17,68,55,42,34,27,21,46,31,21,29.94,29.77,29.53,10,10,7,29,16,41,0.00,0,,6
2012-10-18,62,48,35,27,21,18,60,34,19,30.13,30.05,29.95,10,10,10,14,6,18,0.00,0,,349
2012-10-19,75,58,42,32,26,14,44,31,16,30.11,30.00,29.87,10,10,10,17,7,23,0.00,0,,251
2012-10-20,80,61,42,37,33,27,76,41,14,29.87,29.79,29.74,10,10,10,14,9,,0.00,0,,202
2012-10-21,87,68,50,36,31,27,58,28,12,29.82,29.76,29.72,10,10,10,24,12,34,0.00,0,,232
2012-10-22,84,70,57,57,35,30,77,31,15,29.92,29.85,29.81,10,10,10,22,12,38,0.00,0,,225
2012-10-23,89,72,55,57,39,27,88,39,11,29.89,29.84,29.80,10,10,7,24,16,31,0.00,0,,218
2012-10-24,86,72,59,61,54,45,83,59,26,29.87,29.80,29.70,10,10,10,24,17,33,0.00,0,,199
2012-10-25,68,50,32,59,35,27,83,68,50,30.27,30.06,29.69,10,10,7,32,20,46,0.00,3,Thunderstorm,13
2012-10-26,44,36,28,27,23,19,86,62,37,30.45,30.38,30.28,10,10,10,21,8,28,0.00,2,,29
2012-10-27,51,36,21,23,21,18,86,56,30,30.38,30.25,30.14,10,10,10,15,8,23,0.00,0,,168
2012-10-28,60,45,30,25,22,19,69,43,20,30.24,30.19,30.12,10,10,10,17,12,23,0.00,0,,202
2012-10-29,68,52,35,32,28,23,65,43,26,30.21,30.15,30.08,10,10,10,23,16,26,0.00,0,,185
2012-10-30,77,58,39,34,30,27,75,40,16,30.10,30.06,30.01,10,10,7,15,9,18,0.00,0,,321
2012-10-31,78,60,42,36,32,27,66,38,15,30.13,30.09,30.05,10,10,10,12,7,17,0.00,0,,222